This is the latest recevied weather packets stored in our database for station/object VY2CRA-4. If no packets are shown the sender has not sent any weather packets the latest 10 day(s).
| Time | Temp. | Humidity | Pressure | Rain* | Wind** | Luminosity | Snow |
|---|---|---|---|---|---|---|---|
| 1788404934 | 19.44° C | 40% | 1019.1 hPa | 0 mm | - | - | - |
| 1788403733 | 20° C | 39% | 1019 hPa | 0 mm | - | - | - |
| 1788402532 | 20.56° C | 38% | 1019.1 hPa | 0 mm | - | - | - |
| 1788401331 | 20.56° C | 37% | 1019.2 hPa | 0 mm | - | - | - |
| 1788398929 | 20.56° C | 36% | 1019.6 hPa | 0 mm | - | - | - |
| 1788397728 | 20.56° C | 35% | 1019.6 hPa | 0 mm | - | - | - |
| 1788396527 | 21.11° C | 34% | 1019.5 hPa | 0 mm | - | - | - |
| 1788395326 | 22.22° C | 32% | 1019.6 hPa | 0 mm | - | - | - |
| 1788394125 | 23.33° C | 30% | 1019.6 hPa | 0 mm | - | - | - |
| 1788392924 | 24.44° C | 27% | 1019.4 hPa | 0 mm | - | - | - |
| 1788391723 | 25° C | 28% | 1019.3 hPa | 0 mm | - | - | - |
| 1788389321 | 23.89° C | 28% | 1019.4 hPa | 0 mm | - | - | - |
| 1788388120 | 25° C | 26% | 1019.4 hPa | 0 mm | - | - | - |
| 1788386920 | 25.56° C | 25% | 1019.4 hPa | 0 mm | - | - | - |
| 1788385719 | 26.11° C | 24% | 1019.4 hPa | 0 mm | - | - | - |
| 1788384518 | 26.67° C | 23% | 1019.4 hPa | 0 mm | - | - | - |
| 1788382116 | 27.22° C | 21% | 1019.6 hPa | 0 mm | - | - | - |
| 1788380915 | 27.22° C | 21% | 1019.6 hPa | 0 mm | - | - | - |
| 1788379714 | 27.22° C | 20% | 1019.5 hPa | 0 mm | - | - | - |
| 1788378513 | 27.78° C | 19% | 1019.6 hPa | 0 mm | - | - | - |
| 1788377312 | 28.33° C | 18% | 1019.7 hPa | 0 mm | - | - | - |
| 1788374910 | 28.33° C | 19% | 1019.6 hPa | 0 mm | - | - | - |
| 1788373709 | 28.33° C | 18% | 1019.6 hPa | 0 mm | - | - | - |
| 1788372508 | 28.33° C | 18% | 1019.7 hPa | 0 mm | - | - | - |
| 1788371307 | 27.78° C | 20% | 1019.7 hPa | 0 mm | - | - | - |
* Rain since midnight (hover to see other rain measurements)
** Current wind speed in m/s (hover to see current wind gust speed)